Needles, CA

11:25 AM PST on February 22, 2018 (GMT -0800)
Needles

Weather History for KEED - February, 2012

Change the Weather History Date:

Thursday, February 16, 2012

  Actual Average Record
Temperature  
Mean Temperature 58 °F 58 °F  
Max Temperature 68 °F 70 °F 87 °F (1996)
Min Temperature 48 °F 47 °F 29 °F (1990)
Degree Days  
Heating Degree Days 7    
Cooling Degree Days 0    
Growing Degree Days 8 (Base 50)    
Moisture  
Dew Point 33 °F    
Average Humidity 42    
Maximum Humidity 74    
Minimum Humidity 23    
Precipitation  
Precipitation 0.02 in 0.03 in 0.42 in (1992)
Month to date precipitation 0.44  
Year to date precipitation 1.16  
Sea Level Pressure  
Sea Level Pressure 30.01 in    
Wind  
Wind Speed 17 mph (North)    
Max Wind Speed 28 mph    
Max Gust Speed 36 mph    
Visibility 10 miles    
Events Rain    
T = Trace of Precipitation, MM = Missing Value Source: NWS Daily Summary

Daily Weather History Graph

Daily Weather History Graph

Search for Another Location

Airport or City:

Trip Planner

Search our weather history database for the weather conditions in past years. The results will help you decide how hot, cold, wet, or windy it might be!

Date:

Astronomy

Feb. 16, 2012 Rise Set
Actual Time 6:23 AM PST 5:22 PM PST
Civil Twilight 5:57 AM PST 5:47 PM PST
Nautical Twilight 5:28 AM PST 6:17 PM PST
Astronomical Twilight 4:58 AM PST 6:46 PM PST
Moon 2:15 AM PST (2/16) 12:25 PM PST (2/16)
Length of Visible Light 11h 50m
Length of Day
10h 58m
Waning Crescent, 27% of the Moon is Illuminated
Feb 16
Waning Crescent
Feb 21
New
Feb 29
First Quarter
Mar 8
Full
Mar 14
Last Quarter

Hourly Weather History & Observations

Time (PST) Temp. Dew Point Humidity Pressure Visibility Wind Dir Wind Speed Gust Speed Precip Events Conditions
12:56 AM 50.0 °F 41.0 °F 71% 29.96 in 10.0 mi North 15.0 mph - 0.01 in   Overcast
1:56 AM 50.0 °F 39.9 °F 68% 29.97 in 10.0 mi North 13.8 mph - N/A   Overcast
2:56 AM 48.9 °F 41.0 °F 74% 29.96 in 10.0 mi North 13.8 mph - 0.01 in Rain Light Rain
3:56 AM 48.9 °F 39.9 °F 71% 29.99 in 10.0 mi North 11.5 mph - 0.00 in   Overcast
4:56 AM 50.0 °F 39.0 °F 66% 30.00 in 10.0 mi North 13.8 mph - N/A   Overcast
5:56 AM 48.0 °F 39.0 °F 71% 30.02 in 10.0 mi North 10.4 mph - N/A   Partly Cloudy
6:56 AM 48.9 °F 39.0 °F 69% 30.04 in 10.0 mi North 16.1 mph - N/A   Clear
8:56 AM 55.0 °F 37.0 °F 51% 30.06 in 10.0 mi NNE 25.3 mph 33.4 mph N/A   Clear
9:56 AM 59.0 °F 36.0 °F 42% 30.05 in 10.0 mi North 25.3 mph 32.2 mph N/A   Clear
10:56 AM 62.1 °F 34.0 °F 35% 30.04 in 10.0 mi NNE 23.0 mph 31.1 mph N/A   Clear
11:56 AM 64.9 °F 33.1 °F 31% 30.01 in 10.0 mi NNE 25.3 mph 31.1 mph N/A   Clear
12:56 PM 66.9 °F 30.9 °F 26% 29.98 in 10.0 mi NNE 23.0 mph 31.1 mph N/A   Clear
1:56 PM 68.0 °F 30.0 °F 24% 29.96 in 10.0 mi NNE 24.2 mph 32.2 mph N/A   Clear
2:56 PM 68.0 °F 30.0 °F 24% 29.95 in 10.0 mi NNE 23.0 mph 31.1 mph N/A   Clear
3:56 PM 66.9 °F 28.0 °F 23% 29.96 in 10.0 mi North 24.2 mph 33.4 mph N/A   Clear
4:56 PM 64.9 °F 26.1 °F 23% 29.97 in 10.0 mi North 27.6 mph 35.7 mph N/A   Clear
5:56 PM 63.0 °F 26.1 °F 25% 30.00 in 10.0 mi North 17.3 mph - N/A   Clear
6:56 PM 61.0 °F 26.1 °F 26% 30.03 in 10.0 mi North 15.0 mph 20.7 mph N/A   Clear
7:56 PM 61.0 °F 26.1 °F 26% 30.04 in 10.0 mi North 17.3 mph 24.2 mph N/A   Clear
8:56 PM 60.1 °F 26.1 °F 27% 30.05 in 10.0 mi North 17.3 mph 27.6 mph N/A   Clear
9:56 PM 60.1 °F 26.1 °F 27% 30.05 in 10.0 mi North 20.7 mph 31.1 mph N/A   Clear
10:56 PM 57.9 °F 27.0 °F 31% 30.07 in 10.0 mi North 10.4 mph - N/A   Clear
11:56 PM 55.9 °F 27.0 °F 33% 30.07 in 10.0 mi North 13.8 mph - N/A   Clear